Date,TemperatureHighF,TemperatureAvgF,TemperatureLowF,DewpointHighF,DewpointAvgF,DewpointLowF,HumidityHigh,HumidityAvg,HumidityLow,PressureMaxIn,PressureMinIn,WindSpeedMaxMPH,WindSpeedAvgMPH,GustSpeedMaxMPH,PrecipitationSumIn
2013-1-1,50.6,39.6,30.1,46.0,36.7,25.0,97,89,75,30.20,29.99,10,1,19,0.79
2013-1-2,41.4,35.7,33.0,41.0,33.6,31.0,97,92,87,30.17,29.95,10,2,12,0.09
2013-1-3,35.6,32.2,27.3,32.0,28.5,23.0,95,86,73,30.32,30.14,8,1,10,0.00
2013-1-4,34.4,28.3,24.2,23.0,20.9,19.0,82,74,59,30.43,30.32,8,3,17,0.00
2013-1-5,48.2,32.3,18.9,30.0,21.4,15.0,92,68,27,30.49,30.29,6,1,18,0.00
2013-1-6,39.2,35.2,31.9,34.0,30.6,27.0,94,83,72,30.29,30.12,9,2,15,0.00
2013-1-7,46.6,34.1,26.4,30.0,25.4,23.0,88,72,44,30.45,30.27,10,1,13,0.00
2013-1-8,50.0,34.7,23.1,32.0,26.2,20.0,91,74,41,30.48,30.39,3,0,11,0.00
2013-1-9,56.0,39.2,26.1,51.0,37.0,25.0,96,92,80,30.54,30.44,7,0,13,0.00
2013-1-10,59.5,50.7,45.7,53.0,46.8,36.0,97,87,61,30.54,30.34,10,1,12,0.00
2013-1-11,60.9,50.1,42.8,54.0,46.9,36.0,96,89,62,30.34,30.09,10,2,14,0.08
2013-1-12,69.3,56.0,46.1,58.0,52.0,45.0,97,87,65,30.19,30.05,4,1,8,0.00
2013-1-13,66.1,58.9,51.5,57.0,53.4,49.0,93,82,65,30.07,29.97,9,2,13,0.00
2013-1-14,59.2,52.5,43.8,56.0,51.6,43.0,97,96,88,30.18,30.00,8,1,15,0.17
2013-1-15,49.1,45.8,42.6,48.0,44.9,42.0,98,96,95,30.16,29.99,6,0,8,0.11
2013-1-16,61.1,51.2,47.7,53.0,49.2,47.0,98,93,62,30.03,29.92,7,1,11,0.18
2013-1-17,47.7,39.5,30.5,47.0,38.6,28.0,97,96,89,30.23,29.85,11,1,15,0.14
2013-1-18,35.7,28.4,23.6,27.0,23.8,20.0,94,83,55,30.57,30.25,17,3,19,0.36
2013-1-19,42.8,28.6,18.9,34.0,25.3,17.0,95,88,60,30.54,30.26,2,0,3,0.01
2013-1-20,45.4,36.1,24.1,34.0,28.6,23.0,95,75,57,30.26,30.13,7,2,15,0.24
2013-1-21,41.3,31.0,22.3,30.0,20.1,7.0,96,68,43,30.15,30.02,15,4,26,0.09
2013-1-22,24.7,19.5,14.6,8.0,0.5,-4.0,58,44,32,30.31,30.04,27,6,34,0.00
2013-1-23,35.3,25.4,18.4,25.0,10.8,-3.0,80,55,39,30.41,30.14,8,2,13,0.00
2013-1-24,38.8,27.1,16.1,29.0,12.8,2.0,74,56,35,30.47,30.07,13,5,36,0.01
2013-1-25,34.5,23.2,16.3,33.0,17.1,3.0,94,78,54,30.48,30.16,10,4,26,0.00
2013-1-26,34.5,30.8,26.7,31.0,27.0,24.0,95,86,72,30.42,30.17,13,4,23,0.06
2013-1-27,35.3,28.8,19.8,30.0,24.4,18.0,94,84,70,30.57,30.42,5,1,9,0.11
2013-1-28,59.3,40.5,30.2,45.0,35.5,29.0,95,84,56,30.48,30.26,5,0,10,0.78
2013-1-29,65.2,46.7,29.8,54.0,41.4,29.0,97,84,50,30.30,30.01,5,0,10,0.06
2013-1-30,60.5,54.6,42.0,58.0,52.6,39.0,97,93,84,30.01,29.42,9,3,15,2.22
2013-1-31,41.7,29.6,26.0,40.0,23.5,19.0,92,78,65,30.03,29.45,17,4,26,0.25
2013-2-1,35.8,20.2,13.8,29.0,11.4,4.0,92,69,59,30.43,29.95,15,4,24,0.01
2013-2-2,32.4,22.2,9.9,29.0,17.5,7.0,94,83,54,30.43,30.11,8,1,10,0.01
2013-2-3,32.3,29.0,24.9,29.0,25.3,20.0,93,86,75,30.10,29.96,17,5,32,0.01
2013-2-4,44.8,28.9,15.4,29.0,21.4,13.0,92,75,47,30.21,30.05,17,1,22,0.24
2013-2-5,43.5,33.8,27.2,36.0,29.6,25.0,95,85,70,30.06,29.99,9,1,11,0.06
2013-2-6,49.7,37.8,27.0,36.0,28.3,25.0,96,71,40,30.31,30.05,7,2,13,0.00
2013-2-7,43.3,35.3,27.7,37.0,31.2,25.0,96,85,69,30.32,30.07,4,0,8,0.22
2013-2-8,46.3,37.5,30.6,41.0,33.8,25.0,97,87,54,30.18,29.94,19,4,29,0.29
2013-2-9,49.4,32.9,25.5,25.0,20.8,14.0,88,65,26,30.40,30.17,11,2,23,0.01
2013-2-10,45.9,38.7,25.4,41.0,24.8,18.0,94,61,37,30.42,30.14,12,3,18,0.07
2013-2-11,57.5,48.8,42.6,51.0,41.3,30.0,96,77,46,30.15,29.98,8,2,16,0.01
2013-2-12,50.7,41.1,35.6,34.0,24.3,16.0,93,54,28,30.14,29.95,10,2,17,0.07
2013-2-13,47.1,37.8,32.7,41.0,35.5,29.0,95,91,78,29.96,29.63,9,2,19,0.30
2013-2-14,48.6,35.2,27.4,29.0,26.2,23.0,90,72,39,30.11,29.90,10,2,14,0.00
2013-2-15,53.3,34.7,23.3,38.0,28.5,22.0,95,81,38,30.16,30.01,10,1,15,0.06
2013-2-16,30.5,26.7,20.2,27.0,20.7,12.0,86,78,58,30.07,29.89,13,4,21,0.00
2013-2-17,29.5,22.0,16.3,14.0,8.9,4.0,79,58,41,30.32,30.01,15,5,25,0.00
2013-2-18,46.8,31.4,13.8,24.0,17.6,9.0,86,60,37,30.45,30.20,6,1,11,0.02
2013-2-19,45.7,38.4,30.2,40.0,26.2,11.0,88,63,39,30.18,29.89,13,4,24,0.04
2013-2-20,38.1,30.2,24.9,15.0,11.0,7.0,61,46,30,30.22,30.02,16,5,25,0.00
2013-2-21,54.1,36.4,20.0,32.0,13.6,-2.0,92,46,11,30.29,30.15,8,1,10,0.08
2013-2-22,42.8,35.9,31.7,40.0,33.2,29.0,94,90,74,30.27,30.10,10,2,14,0.24
2013-2-23,55.1,43.6,35.4,48.0,40.7,34.0,97,90,73,30.11,29.85,6,1,11,0.13
2013-2-24,48.3,40.2,28.3,42.0,29.8,24.0,95,69,40,30.08,29.85,10,2,19,0.00
2013-2-25,43.6,32.5,24.4,26.0,23.8,22.0,92,72,49,30.17,30.07,9,1,9,0.00
2013-2-26,38.0,33.8,27.9,37.0,31.7,22.0,97,92,68,30.11,29.59,12,2,18,0.49
2013-2-27,47.0,37.3,33.7,36.0,31.5,27.0,96,80,65,29.84,29.68,8,3,22,0.15
2013-2-28,34.6,29.7,27.4,30.0,25.2,23.0,93,83,75,29.94,29.73,10,4,19,0.04
2013-3-1,33.7,29.8,27.4,29.0,27.1,25.0,93,89,80,29.98,29.91,9,2,14,0.01
2013-3-2,32.1,28.4,22.0,28.0,24.2,16.0,92,84,77,30.00,29.89,11,3,17,0.08
2013-3-3,25.7,22.5,19.3,19.0,16.2,14.0,88,77,67,30.10,29.98,10,4,18,0.00
2013-3-4,44.9,29.6,21.9,24.0,17.0,13.0,80,61,33,30.24,30.10,15,3,19,0.15
2013-3-5,40.5,34.2,28.5,40.0,31.7,24.0,97,90,80,30.14,29.68,7,0,21,0.95
2013-3-6,31.5,25.5,22.5,28.0,22.7,20.0,92,89,83,30.21,29.68,19,6,28,0.00
2013-3-7,30.4,27.2,25.0,25.0,23.2,22.0,93,85,78,30.39,30.21,10,3,15,0.01
2013-3-8,42.9,31.6,25.6,28.0,23.7,21.0,89,73,52,30.43,30.33,9,2,16,0.01
2013-3-9,60.6,39.3,20.5,34.0,25.9,19.0,94,65,25,30.42,30.28,4,0,8,0.00
2013-3-10,58.9,47.6,34.2,34.0,31.5,29.0,85,56,37,30.31,30.15,8,2,15,0.00
2013-3-11,49.8,46.1,43.0,47.0,42.3,33.0,97,87,53,30.14,29.85,13,3,19,0.53
2013-3-12,49.2,40.6,30.7,48.0,37.1,28.0,97,88,69,30.06,29.78,13,3,18,0.39
2013-3-13,36.7,31.4,25.8,31.0,23.3,15.0,94,73,56,30.22,30.04,13,3,25,0.02
2013-3-14,38.7,29.0,21.4,18.0,15.2,12.0,73,58,40,30.36,30.22,14,4,25,0.00
2013-3-28,43.5,36.7,27.2,26.0,20.7,-99.9,85,57,44,30.37,0.00,9,-21,14,0.03
2013-3-29,49.0,35.4,20.6,32.0,24.2,19.0,95,69,31,30.42,30.29,8,1,16,0.00
2013-3-30,59.0,44.6,29.9,38.0,32.5,28.0,94,67,36,30.31,30.09,5,0,9,0.00
2013-3-31,58.0,48.4,42.6,49.0,44.7,38.0,97,88,67,30.06,29.83,7,1,13,0.36
2013-4-1,53.1,46.5,35.1,46.0,39.3,30.0,97,78,54,30.00,29.87,11,2,21,0.01
2013-4-2,48.0,40.2,31.6,31.0,22.9,18.0,74,52,31,30.19,30.00,12,3,15,0.00
2013-4-3,52.8,39.3,24.0,27.0,19.6,15.0,83,49,23,30.32,30.19,9,1,13,0.00
2013-4-4,38.7,34.5,31.7,34.0,25.9,11.0,96,74,34,30.30,30.02,8,1,11,0.47
2013-4-5,52.4,40.1,34.1,39.0,35.8,32.0,96,86,57,30.12,29.99,10,2,14,0.18
2013-4-6,62.0,42.5,27.5,39.0,29.2,-99.9,96,68,34,30.28,30.13,8,-23,15,0.00
2013-4-7,65.2,51.8,37.7,45.0,38.7,33.0,86,63,42,30.21,30.07,8,2,13,0.00
2013-4-8,72.2,53.9,36.3,51.0,43.6,35.0,96,72,43,30.17,30.04,7,1,12,0.00
2013-4-9,79.9,61.3,39.7,54.0,48.1,38.0,96,66,35,30.20,30.05,6,1,10,0.00
2013-4-10,82.7,64.4,45.6,57.0,51.1,44.0,96,66,35,30.08,29.91,7,1,10,0.00
2013-4-11,75.5,62.7,48.4,60.0,53.1,47.0,95,73,47,29.93,29.66,8,2,12,0.36
2013-4-12,62.7,56.6,48.5,60.0,49.8,38.0,96,79,48,29.85,29.57,12,2,15,0.26
2013-4-13,63.2,53.2,42.1,39.0,36.5,34.0,79,55,36,30.06,29.84,9,2,15,0.00
2013-4-14,68.8,52.5,33.1,48.0,37.9,32.0,95,63,30,30.13,29.98,7,1,14,0.00
2013-4-15,57.7,53.3,49.7,52.0,50.0,47.0,95,88,79,30.20,29.97,7,1,11,0.03
2013-4-16,77.0,63.1,50.7,59.0,54.1,49.0,96,75,46,30.26,30.14,8,2,11,0.03
2013-4-17,67.4,58.9,54.3,61.0,55.9,52.0,97,90,70,30.24,30.09,6,1,8,0.33
2013-4-18,71.3,63.4,54.9,59.0,56.2,53.0,95,79,54,30.11,29.90,9,2,18,0.01
2013-4-19,63.7,56.1,41.9,61.0,53.2,36.0,95,90,77,29.90,29.67,16,3,17,0.31
2013-4-20,52.7,42.1,33.4,36.0,30.2,27.0,85,65,40,30.35,29.90,11,4,19,0.26
2013-4-21,56.6,43.2,29.4,34.0,30.2,26.0,94,65,37,30.50,30.35,8,2,13,0.26
2013-4-22,61.4,48.1,38.6,37.0,33.7,30.0,80,60,36,30.44,30.23,6,1,9,0.00
2013-4-23,70.1,52.0,31.7,45.0,37.5,29.0,91,62,27,30.29,30.09,6,1,10,0.00
2013-4-24,72.5,56.4,40.9,56.0,47.9,39.0,94,75,44,30.11,29.94,13,2,17,0.06
2013-4-25,60.6,47.9,37.9,44.0,33.2,16.0,92,62,18,30.36,30.08,17,2,17,0.06
2013-4-26,65.5,48.7,29.9,41.0,33.6,28.0,95,62,31,30.46,30.33,8,1,12,0.00
2013-4-27,57.2,50.8,46.7,49.0,45.1,40.0,92,81,61,30.39,30.22,4,1,10,0.03
2013-4-28,52.0,49.6,46.2,51.0,46.5,37.0,96,89,60,30.23,30.01,8,2,11,0.85
2013-4-29,66.3,56.0,48.5,55.0,51.0,48.0,97,84,59,30.05,29.95,7,0,9,0.04
2013-4-30,71.8,59.5,53.5,57.0,54.5,52.0,97,84,53,30.15,29.98,6,1,7,0.10
2013-5-1,62.5,56.6,52.6,53.0,50.8,49.0,91,81,67,30.27,30.14,7,1,11,0.10
2013-5-2,61.8,53.5,49.1,56.0,50.6,48.0,96,90,80,30.29,30.21,5,1,12,0.15
2013-5-3,60.0,53.6,48.7,50.0,46.4,43.0,92,77,57,30.24,30.10,9,2,16,0.15
2013-5-4,52.6,47.3,42.8,45.0,41.4,36.0,91,80,70,30.10,30.00,9,3,19,0.00
2013-5-5,50.8,44.5,41.2,49.0,40.1,-99.9,95,91,90,30.06,29.88,10,-9,17,0.61
2013-5-6,60.0,51.9,43.2,53.0,48.2,39.0,97,88,50,29.91,29.81,8,1,24,0.94
2013-5-7,58.5,47.6,41.9,51.0,45.5,41.0,97,92,73,29.97,29.88,5,0,9,0.43
2013-5-8,61.3,52.9,47.2,55.0,50.8,46.0,97,92,77,30.05,29.93,5,0,9,0.33
2013-5-9,71.2,58.8,46.9,56.0,51.7,46.0,97,80,51,30.11,30.01,7,1,13,0.37
2013-5-10,75.2,57.8,45.8,62.0,53.4,45.0,97,87,52,30.11,29.96,6,0,12,0.24
2013-5-11,65.1,59.0,54.3,60.0,56.1,51.0,98,90,77,29.97,29.81,5,1,13,0.19
2013-5-12,55.9,50.8,42.5,51.0,39.9,31.0,93,68,42,30.06,29.86,13,3,21,0.04
2013-5-13,56.3,45.9,33.4,35.0,30.8,27.0,93,59,33,30.21,30.06,9,2,17,0.07
2013-5-14,72.4,52.2,30.7,51.0,38.5,29.0,95,64,33,30.29,30.07,8,1,12,0.18
2013-5-15,81.0,66.4,46.1,59.0,52.7,44.0,92,64,40,30.09,29.94,8,2,18,0.18
2013-5-16,72.3,61.1,47.3,56.0,51.3,46.0,96,72,52,30.05,29.95,7,1,14,0.00
2013-5-17,74.4,59.9,46.7,66.0,54.8,45.0,96,85,53,30.10,30.03,3,0,8,0.57
2013-5-18,63.5,59.5,55.7,62.0,58.3,55.0,98,96,90,30.10,30.04,3,0,7,0.19
2013-5-19,72.2,63.7,57.4,64.0,60.9,56.0,98,91,75,30.08,29.98,7,1,11,0.03
2013-5-20,77.7,63.0,54.1,65.0,59.3,53.0,98,89,63,30.12,30.01,5,0,9,0.11
2013-5-21,84.3,68.4,58.4,67.0,60.9,57.0,98,79,44,30.04,29.89,11,1,15,0.11
2013-5-22,80.8,63.9,56.0,69.0,59.9,55.0,98,88,58,29.98,29.86,3,0,9,0.10
2013-5-23,75.5,63.3,55.7,63.0,57.5,52.0,98,83,45,29.93,29.82,7,1,12,0.20
2013-5-24,60.3,54.4,47.0,54.0,43.8,35.0,91,69,44,30.22,29.86,15,3,19,0.02
2013-5-25,67.8,54.5,40.4,45.0,39.3,31.0,86,60,28,30.33,30.20,10,2,15,0.02
2013-5-26,69.7,57.5,47.8,50.0,45.1,38.0,89,66,37,30.27,30.18,10,1,13,0.00
2013-5-27,76.8,61.0,43.8,58.0,52.0,42.0,96,74,52,30.27,30.12,8,1,11,0.00
2013-5-28,79.7,65.8,52.5,64.0,57.4,51.0,96,76,48,30.18,30.09,4,1,9,0.00
2013-5-29,83.4,68.5,54.2,63.0,58.4,53.0,96,73,41,30.18,30.10,5,0,11,0.00
2013-5-30,82.6,67.7,51.8,63.0,58.1,51.0,96,74,50,30.22,30.12,6,1,10,0.00
2013-5-31,80.9,69.6,55.9,64.0,59.3,54.0,96,72,51,30.17,30.06,5,1,11,0.00
2013-6-1,81.6,69.4,57.7,66.0,60.3,56.0,96,75,51,30.08,29.96,8,1,10,0.00
2013-6-2,72.6,65.7,60.2,66.0,62.4,59.0,96,89,73,29.99,29.85,7,0,8,0.30
2013-6-3,76.4,66.5,57.8,64.0,60.1,56.0,98,81,57,29.97,29.85,6,1,25,0.30
2013-6-4,75.0,64.0,55.6,62.0,58.3,54.0,96,83,61,30.08,29.96,5,0,7,0.00
2013-6-5,75.4,65.6,56.4,66.0,60.7,55.0,95,85,67,30.08,29.95,6,1,13,0.26
2013-6-6,74.1,66.5,61.7,67.0,63.5,61.0,97,90,75,29.96,29.74,4,0,8,0.42
2013-6-7,73.3,65.1,61.7,66.0,62.9,60.0,97,93,74,29.82,29.65,7,1,10,0.24
2013-6-8,75.9,67.3,57.8,64.0,60.7,57.0,97,81,59,30.06,29.81,6,1,10,0.25
2013-6-9,79.8,67.6,61.0,67.0,62.8,59.0,95,86,56,30.12,30.02,8,1,9,0.29
2013-6-10,77.0,68.4,60.5,67.0,62.4,55.0,96,82,49,30.01,29.84,8,1,14,0.27
2013-6-11,77.4,66.2,58.5,64.0,59.6,57.0,96,81,56,29.99,29.88,7,1,12,0.30
2013-6-12,86.2,72.1,58.0,71.0,64.8,56.0,96,79,57,30.00,29.89,10,1,16,0.00
2013-6-13,84.2,70.0,61.5,67.0,63.2,54.0,95,80,54,29.89,29.66,10,2,17,0.43
2013-6-14,73.9,63.8,53.3,57.0,53.9,51.0,91,72,49,30.06,29.78,11,2,16,0.43
2013-6-15,78.2,63.8,48.7,61.0,54.2,47.0,96,74,49,30.15,30.05,7,0,14,0.00
2013-6-16,78.6,66.3,54.6,67.0,60.1,53.0,95,82,59,30.11,30.00,8,0,13,0.00
2013-6-17,77.9,68.2,63.2,69.0,64.6,62.0,96,88,67,30.02,29.91,7,0,8,0.16
2013-6-18,72.7,65.4,61.0,68.0,63.4,59.0,95,93,79,29.93,29.78,7,1,9,0.33
2013-6-19,78.2,65.2,56.8,64.0,59.7,55.0,96,83,57,30.12,29.92,4,0,7,0.33
2013-6-20,79.0,66.8,55.6,65.0,59.9,54.0,96,80,58,30.21,30.11,6,0,8,0.00
2013-6-21,82.6,68.6,57.0,64.0,59.5,55.0,96,75,43,30.23,30.14,4,0,8,0.00
2013-6-22,85.1,68.4,53.8,63.0,57.9,52.0,95,72,38,30.21,30.08,5,0,7,0.00
2013-6-23,81.8,68.8,54.7,66.0,60.2,53.0,96,76,47,30.18,30.09,6,0,7,0.00
2013-6-24,80.5,68.3,59.6,69.0,63.2,58.0,95,85,60,30.18,30.06,3,0,8,0.41
2013-6-25,83.2,70.4,61.5,69.0,64.8,60.0,97,84,55,30.12,29.98,5,0,9,0.41
2013-6-26,82.1,70.2,62.2,71.0,65.4,61.0,96,85,62,30.02,29.88,9,1,10,0.14
2013-6-27,76.0,68.1,60.6,70.0,64.7,59.0,96,89,77,29.91,29.73,8,1,13,0.29
2013-6-28,81.2,70.2,62.4,69.0,65.1,60.0,97,85,58,29.77,29.60,7,1,16,0.24
2013-6-29,83.2,68.8,58.6,66.0,59.6,54.0,97,76,37,29.70,29.61,7,1,10,0.24
2013-6-30,82.4,66.9,54.5,66.0,60.0,53.0,95,80,53,29.81,29.68,4,0,9,0.89
2013-7-1,78.7,67.7,61.8,68.0,63.5,60.0,97,87,64,29.93,29.77,5,1,11,1.76
2013-7-2,77.5,67.5,62.6,68.0,64.4,61.0,97,90,71,30.10,29.91,5,0,8,0.32
2013-7-3,71.1,65.3,60.3,69.0,64.1,59.0,97,95,90,30.20,30.07,6,0,7,2.51
2013-7-4,73.6,65.8,60.2,69.0,64.4,59.0,97,95,84,30.21,30.14,5,0,7,1.70
2013-7-5,80.1,68.6,64.4,71.0,65.5,63.0,97,90,68,30.21,30.14,5,1,10,0.42
2013-7-6,75.0,68.5,65.5,70.0,66.0,64.0,96,92,77,30.18,30.07,6,1,9,0.48
2013-7-7,77.6,68.3,65.2,71.0,66.3,64.0,97,93,77,30.14,30.05,7,0,14,1.20
2013-7-8,83.4,71.3,64.3,68.0,64.6,62.0,97,82,50,30.17,30.08,4,0,10,0.16
2013-7-9,87.4,72.8,63.2,71.0,65.1,62.0,95,79,50,30.14,30.02,5,0,8,0.16
2013-7-10,82.7,69.0,62.6,73.0,65.7,61.0,96,90,63,30.07,29.93,5,0,8,0.54
2013-7-11,76.6,68.7,64.8,69.0,65.7,63.0,97,90,73,29.94,29.85,5,0,9,0.54
2013-7-12,82.7,69.5,61.1,68.0,63.0,59.0,95,82,50,30.00,29.87,9,0,10,0.55
2013-7-13,73.6,66.7,61.3,65.0,62.7,60.0,96,87,73,30.10,29.97,5,1,10,0.08
2013-7-14,78.0,69.2,66.0,70.0,66.1,64.0,96,90,72,30.26,30.08,3,0,9,0.99
2013-7-15,83.7,73.1,64.3,68.0,65.1,62.0,94,77,54,30.29,30.22,3,0,7,0.99
2013-7-16,89.5,71.7,60.8,72.0,64.5,59.0,95,81,46,30.32,30.20,2,0,7,0.01
2013-7-17,86.3,70.5,64.4,73.0,66.5,63.0,96,88,60,30.28,30.14,5,0,16,0.78
2013-7-18,86.5,72.3,63.3,73.0,67.1,62.0,97,85,54,30.20,30.05,2,0,6,0.78
2013-7-19,83.0,72.0,66.0,74.0,68.2,64.0,96,88,63,30.09,29.96,5,0,12,0.42
2013-7-20,80.4,70.8,67.0,71.0,67.8,66.0,96,90,71,30.01,29.90,4,0,8,0.03
2013-7-21,82.2,71.5,65.9,71.0,66.9,64.0,95,86,60,29.98,29.89,6,0,10,0.03
2013-7-22,77.0,69.5,64.1,70.0,66.3,62.0,95,89,73,29.95,29.79,5,0,7,0.41
2013-7-23,81.3,70.5,65.3,68.0,64.9,63.0,95,84,55,29.85,29.76,7,1,10,0.07
2013-7-24,82.4,71.5,63.2,69.0,64.8,61.0,96,81,53,29.84,29.76,5,1,9,0.07
2013-7-25,82.4,70.2,59.9,65.0,60.9,56.0,95,76,41,30.02,29.83,6,1,9,0.00
2013-7-26,79.6,67.2,54.9,67.0,61.0,53.0,95,81,60,30.06,29.98,4,0,8,0.00
2013-7-27,73.5,66.9,63.9,68.0,64.4,62.0,96,91,76,30.00,29.87,3,0,4,1.01
2013-7-28,78.5,67.6,59.4,67.0,62.3,57.0,96,85,55,30.02,29.89,9,1,12,0.17
2013-7-29,77.8,64.4,55.1,61.0,56.3,53.0,95,78,48,30.21,30.02,6,0,14,0.17
2013-7-30,76.3,63.7,51.8,65.0,58.5,50.0,95,84,60,30.23,30.14,5,0,8,0.00
2013-7-31,69.3,64.9,61.8,66.0,62.7,60.0,96,92,86,30.17,29.96,3,0,7,0.20
2013-8-1,80.9,70.3,63.4,67.0,64.6,61.0,96,83,57,29.96,29.88,7,1,11,0.01
2013-8-2,81.1,69.6,60.7,64.0,61.4,59.0,95,77,52,30.03,29.93,4,0,9,0.01
2013-8-3,81.0,68.6,60.4,66.0,62.0,59.0,95,81,55,30.02,29.94,6,0,9,0.00
2013-8-4,78.3,69.5,60.5,66.0,61.4,56.0,96,78,48,30.03,29.92,7,1,16,0.30
2013-8-5,79.0,67.5,57.0,67.0,61.2,55.0,95,82,55,30.05,29.95,7,0,11,0.30
2013-8-6,79.6,69.7,61.3,68.0,63.6,60.0,95,82,59,30.00,29.92,2,0,7,0.00
2013-8-7,74.2,68.3,64.0,69.0,65.5,62.0,95,90,79,30.02,29.97,6,0,7,0.09
2013-8-8,80.1,70.0,63.5,72.0,67.4,62.0,96,91,71,30.02,29.97,5,0,6,0.31
2013-8-9,84.8,71.7,65.7,72.0,67.6,64.0,96,87,63,30.04,29.96,5,0,9,0.02
2013-8-10,82.0,71.2,65.8,72.0,67.3,64.0,96,88,67,30.10,30.02,9,1,13,0.31
2013-8-11,83.0,70.9,63.5,71.0,66.5,62.0,96,87,63,30.12,30.02,7,1,10,0.18
2013-8-12,82.3,72.4,66.0,72.0,67.9,64.0,95,86,67,30.07,29.93,7,1,8,0.03
2013-8-13,74.9,68.4,64.9,70.0,65.5,62.0,95,90,76,29.94,29.80,6,1,14,0.25
2013-8-14,72.8,63.7,54.2,62.0,56.8,52.0,93,79,54,30.08,29.88,5,1,12,0.25
2013-8-15,69.4,57.7,50.5,59.0,53.0,49.0,94,85,68,30.16,30.08,5,1,8,0.00
2013-8-16,74.4,60.8,49.4,60.0,54.1,48.0,95,80,54,30.16,30.08,8,0,9,0.00
2013-8-17,67.4,61.0,53.5,61.0,56.4,51.0,94,85,71,30.17,30.11,4,0,9,0.13
2013-8-18,75.4,65.3,59.9,67.0,62.2,59.0,96,90,73,30.20,30.11,3,0,5,0.53
2013-8-19,73.9,65.6,62.1,67.0,63.1,61.0,96,91,78,30.17,30.06,2,0,4,0.17
2013-8-20,79.6,67.9,60.9,69.0,63.6,59.0,95,87,63,30.16,30.09,2,0,5,0.01
2013-8-21,78.5,67.9,62.5,69.0,64.5,61.0,95,89,70,30.21,30.08,2,0,8,0.01
2013-8-22,81.5,70.8,62.5,68.0,63.8,61.0,94,80,57,30.15,30.00,7,1,9,0.00
2013-8-23,78.3,68.3,62.5,68.0,63.8,61.0,95,86,68,30.07,29.96,6,1,10,0.00
2013-8-24,77.4,66.3,54.9,62.0,57.5,52.0,95,76,44,30.30,30.08,4,0,9,0.00
2013-8-25,76.9,62.0,48.6,61.0,54.4,47.0,96,78,50,30.39,30.28,3,0,8,0.00
2013-8-26,79.0,64.0,52.5,63.0,56.9,51.0,94,80,54,30.34,30.13,6,0,13,0.00
2013-8-27,80.0,66.9,56.6,67.0,61.4,55.0,95,84,64,30.16,30.02,7,1,11,0.00
2013-8-28,81.4,70.9,62.0,70.0,65.2,60.0,95,83,64,30.05,29.92,5,1,10,0.00
2013-8-29,86.1,74.8,66.6,70.0,66.9,64.0,93,78,54,29.96,29.88,6,1,10,0.03
2013-8-30,80.3,70.8,65.7,69.0,66.1,64.0,94,85,65,30.00,29.90,3,0,8,0.13
2013-8-31,80.1,70.5,65.3,71.0,66.3,63.0,95,87,71,29.93,29.85,7,0,11,0.13
2013-9-1,80.5,68.2,63.5,70.0,65.2,62.0,95,90,71,29.89,29.79,2,0,8,0.44
2013-9-2,78.8,69.9,62.0,69.0,64.8,60.0,96,84,68,29.90,29.80,6,1,10,0.44
2013-9-3,78.7,68.0,59.4,66.0,62.6,57.0,94,84,58,29.99,29.80,6,1,11,0.04
2013-9-4,80.7,65.5,55.0,64.0,58.3,53.0,95,79,53,30.14,29.99,5,0,10,0.04
2013-9-5,80.1,64.8,53.5,62.0,56.7,52.0,95,78,49,30.16,30.08,5,1,10,0.00
2013-9-6,81.5,64.9,54.7,65.0,57.7,53.0,95,80,45,30.19,30.06,4,0,7,0.00
2013-9-7,80.2,65.2,54.1,64.0,57.8,52.0,95,79,48,30.12,29.99,6,0,9,0.00
2013-9-8,81.0,67.4,57.5,65.0,61.2,55.0,95,82,53,30.02,29.93,6,0,9,0.00
2013-9-9,81.5,68.5,59.3,69.0,62.3,57.0,94,82,58,30.14,30.02,4,0,7,0.00
2013-9-10,85.4,68.3,57.5,70.0,62.4,56.0,95,83,51,30.23,30.13,2,0,13,0.06
2013-9-11,84.6,70.7,61.3,69.0,64.3,60.0,95,82,54,30.22,30.07,6,0,10,0.05
2013-9-12,81.4,69.3,62.3,69.0,64.3,60.0,96,85,60,30.07,29.85,9,0,10,0.04
2013-9-13,71.9,63.5,49.9,61.0,55.3,47.0,92,76,48,29.94,29.80,9,2,13,0.05
2013-9-14,72.5,56.3,41.2,56.0,48.3,39.0,95,77,49,30.14,29.94,5,1,7,0.00
2013-9-15,75.6,59.1,46.7,59.0,52.8,45.0,95,81,54,30.21,30.12,7,0,10,0.00
2013-9-16,74.4,61.7,52.0,62.0,55.7,50.0,95,82,54,30.19,30.11,6,1,12,0.00
2013-9-17,66.7,59.1,54.9,55.0,52.2,50.0,92,78,60,30.29,30.19,5,0,11,0.00
2013-9-18,70.8,59.5,52.4,58.0,53.7,48.0,93,81,63,30.27,30.15,4,0,8,0.02
2013-9-19,72.1,62.4,58.5,63.0,59.1,56.0,94,89,74,30.18,30.08,6,0,8,0.02
2013-9-20,79.1,66.7,58.5,65.0,60.6,57.0,95,82,58,30.09,29.90,7,1,10,0.00
2013-9-21,65.7,61.4,56.6,63.0,59.3,55.0,95,92,86,29.90,29.69,4,0,11,0.49
2013-9-22,69.2,58.1,47.7,55.0,52.0,46.0,95,81,57,29.95,29.75,9,1,11,0.49
2013-9-23,73.6,56.9,43.3,57.0,50.4,42.0,94,81,53,30.07,29.94,7,1,9,0.00
2013-9-24,74.3,58.2,46.1,61.0,52.1,44.0,95,82,52,30.10,29.93,7,0,9,0.00
2013-9-25,60.3,56.3,52.1,58.0,54.4,50.0,95,93,88,29.95,29.85,2,0,5,0.24
2013-9-26,70.7,58.6,50.0,57.0,52.9,48.0,95,83,54,30.07,29.91,3,0,6,0.24
2013-9-27,73.6,57.5,44.6,60.0,51.6,43.0,96,82,53,30.19,30.07,3,0,6,0.00
2013-9-28,69.2,58.1,49.4,56.0,52.3,47.0,94,82,59,30.24,30.15,3,0,7,0.00
2013-9-29,70.6,58.5,48.3,57.0,51.7,46.0,92,79,57,30.17,30.01,7,1,11,0.00
2013-9-30,68.0,58.9,51.1,57.0,53.8,49.0,93,84,65,30.08,30.00,3,0,5,0.00
2013-10-1,73.5,59.1,49.6,58.0,52.5,48.0,95,81,49,30.17,30.07,8,1,10,0.00
2013-10-2,76.7,60.0,50.1,60.0,53.6,48.0,94,81,50,30.20,30.09,5,0,10,0.00
2013-10-3,75.9,60.5,50.5,63.0,55.6,49.0,95,85,57,30.16,30.07,3,0,6,0.00
2013-10-4,79.9,62.4,53.4,63.0,56.6,52.0,95,83,53,30.19,30.08,5,0,9,0.00
2013-10-5,80.8,63.3,53.7,63.0,57.2,52.0,95,82,54,30.17,30.03,4,0,6,0.00
2013-10-6,77.1,64.2,51.6,63.0,57.3,50.0,95,80,60,30.05,29.86,5,1,11,0.00
2013-10-7,66.3,56.4,46.3,61.0,52.6,44.0,94,87,71,30.07,29.76,9,1,11,0.49
2013-10-8,62.6,49.6,39.9,50.0,43.4,38.0,95,81,55,30.26,30.06,3,1,10,0.01
2013-10-9,73.4,50.3,35.3,53.0,42.4,34.0,95,77,45,30.29,30.15,4,0,8,0.01
2013-10-10,66.0,51.9,40.4,51.0,45.2,39.0,95,80,51,30.19,30.06,6,1,13,0.00
2013-10-11,70.3,56.3,46.4,52.0,48.2,44.0,95,77,48,30.07,29.97,11,1,14,0.00
2013-10-12,63.8,58.0,52.4,57.0,53.6,49.0,92,85,76,30.11,30.00,4,0,8,0.00
2013-10-13,64.5,59.2,54.8,62.0,56.9,53.0,94,92,83,30.22,30.11,1,0,7,0.04
2013-10-14,65.6,58.4,54.4,59.0,52.2,-99.9,95,87,73,30.24,30.14,4,-10,10,0.04
2013-10-15,67.9,58.5,53.2,56.0,52.9,50.0,92,82,65,30.19,30.04,4,0,7,0.01
2013-10-16,67.9,57.8,47.2,56.0,51.7,45.0,94,81,63,30.07,29.94,5,0,9,0.01
2013-10-17,68.4,59.3,53.1,61.0,55.8,50.0,94,88,76,29.98,29.79,5,1,9,0.04
2013-10-18,65.6,54.0,48.9,52.0,46.8,42.0,91,77,52,30.03,29.92,5,1,9,0.04
2013-10-19,61.4,52.7,48.2,52.0,47.1,42.0,94,82,58,29.96,29.84,6,1,11,0.00
2013-10-20,62.6,47.0,35.5,43.0,36.3,28.0,91,69,32,30.13,29.95,6,0,13,0.00
2013-10-21,62.7,46.4,31.9,50.0,40.8,30.0,95,82,48,30.19,30.04,4,0,8,0.00
2013-10-22,62.4,51.7,44.0,47.0,44.9,42.0,94,79,54,30.05,29.82,8,1,12,0.00
2013-10-23,48.3,42.8,34.3,45.0,36.1,27.0,93,77,61,30.05,29.73,12,3,22,0.04
2013-10-24,44.3,37.7,30.2,34.0,30.2,26.0,89,75,64,30.23,30.05,6,1,15,0.05
2013-10-25,35.3,31.6,24.6,33.0,26.7,22.0,92,82,70,30.44,30.23,10,1,12,0.04
2013-10-26,51.5,35.1,18.1,35.0,25.3,16.0,93,71,34,30.43,30.16,4,0,13,0.02
2013-10-27,61.3,50.3,43.9,44.0,39.4,34.0,83,67,49,30.18,30.07,11,2,18,0.01
2013-10-28,58.9,52.6,48.3,52.0,48.1,43.0,91,85,71,30.27,30.13,2,0,6,0.01
2013-10-29,65.3,54.4,45.9,50.0,47.4,44.0,93,79,57,30.35,30.24,3,0,7,0.01
2013-10-30,69.6,57.8,50.5,55.0,51.0,47.0,94,79,57,30.27,30.15,3,0,13,0.01
2013-10-31,63.6,57.6,47.7,57.0,51.7,45.0,94,81,67,30.18,29.79,6,1,13,0.01
2013-11-1,68.5,59.2,42.8,57.0,50.1,40.0,89,73,44,29.77,29.62,6,1,13,0.05
2013-11-2,53.8,44.9,37.2,42.0,37.0,33.0,94,76,51,30.05,29.74,10,1,18,0.05
2013-11-3,49.7,41.2,30.2,35.0,32.4,27.0,89,72,53,30.40,30.04,9,2,15,0.00
2013-11-4,52.0,38.4,26.7,30.0,27.5,25.0,94,68,41,30.58,30.42,6,1,10,0.00
2013-11-5,54.9,43.2,31.0,46.0,30.9,19.0,91,66,25,30.58,30.42,5,0,8,0.00
2013-11-6,60.8,52.4,45.5,50.0,47.1,44.0,94,83,67,30.42,30.12,8,1,11,0.01
2013-11-7,55.4,45.3,36.4,54.0,40.2,28.0,95,82,67,30.17,29.99,9,2,16,0.04
2013-11-8,44.8,35.3,25.6,28.0,24.2,20.0,85,66,40,30.39,30.18,18,3,18,0.04
2013-11-9,56.0,36.1,21.6,29.0,23.4,19.0,92,65,29,30.42,30.29,4,0,9,0.00
2013-11-10,55.9,45.7,30.0,37.0,30.2,24.0,82,56,40,30.30,30.21,13,2,17,0.00
2013-11-11,57.8,37.6,21.3,29.0,22.8,13.0,89,61,20,30.38,30.22,5,0,6,0.00
2013-11-12,46.0,31.6,23.1,36.0,24.4,13.0,84,75,58,30.52,30.15,16,3,23,0.00
2013-11-13,35.7,25.4,18.6,18.0,15.5,14.0,83,67,48,30.65,30.51,10,2,21,0.00
2013-11-14,51.4,28.9,13.9,24.0,16.3,11.0,90,66,24,30.60,30.42,6,1,10,0.00
2013-11-15,56.2,35.5,20.9,43.0,29.8,17.0,94,81,44,30.44,30.28,4,0,8,0.13
2013-11-16,56.4,47.1,39.5,51.0,44.9,38.0,96,92,80,30.30,30.19,6,0,7,0.14
2013-11-17,60.9,55.4,52.2,54.0,51.7,49.0,94,87,76,30.19,29.85,8,2,12,0.09
2013-11-18,56.2,51.2,41.6,55.0,41.1,25.0,95,71,46,30.02,29.81,14,3,25,0.15
2013-11-19,46.1,37.5,31.7,27.0,24.4,21.0,81,60,38,30.30,30.02,14,3,20,0.00
2013-11-20,44.4,35.8,29.1,27.0,24.8,22.0,80,65,44,30.50,30.30,6,1,11,0.00
2013-11-21,56.3,44.4,30.5,48.0,39.4,26.0,91,83,67,30.53,30.40,6,1,9,0.00
2013-11-22,63.9,54.1,47.6,55.0,50.3,45.0,94,87,68,30.40,30.12,7,1,8,0.15
2013-11-23,52.0,41.8,28.3,50.0,36.0,17.0,93,80,62,30.23,30.09,12,2,20,0.01
2013-11-24,27.4,21.7,15.8,16.0,8.1,1.0,72,57,36,30.59,30.24,13,3,24,0.01
2013-11-25,34.1,25.3,13.8,25.0,10.9,7.0,86,57,34,30.58,30.38,4,0,8,0.00
2013-11-26,43.2,38.3,29.0,42.0,34.4,-99.9,95,91,87,30.36,29.70,6,-23,9,1.51
2013-11-27,41.7,26.3,19.3,40.0,23.0,13.0,95,87,76,30.25,29.69,21,5,30,0.01
2013-11-28,37.3,23.5,13.9,23.0,16.6,10.0,90,76,45,30.58,30.25,11,1,18,0.02
2013-11-29,43.7,26.6,14.9,27.0,20.5,12.0,93,80,47,30.68,30.58,6,0,8,0.03
2013-11-30,41.4,29.6,22.7,27.0,22.2,19.0,88,75,53,30.68,30.42,4,0,9,0.01
2013-12-1,48.3,29.8,17.9,33.0,23.9,16.0,92,81,53,30.42,30.14,8,1,13,0.03
2013-12-2,48.3,34.6,22.4,39.0,30.2,20.0,93,84,64,30.14,29.89,3,0,4,0.01
2013-12-3,56.1,44.3,34.6,45.0,40.0,31.0,94,85,64,29.97,29.89,3,0,9,0.02
2013-12-4,58.3,46.7,36.2,51.0,43.6,34.0,96,89,76,30.09,29.96,5,1,9,0.00
2013-12-5,67.7,52.9,38.4,58.0,49.7,37.0,96,89,68,30.12,29.99,5,0,7,0.07
2013-12-6,66.7,59.2,49.9,61.0,56.3,48.0,96,90,79,30.02,29.88,5,1,10,0.32
2013-12-7,49.8,40.0,37.0,48.0,37.6,34.0,94,90,86,30.42,29.98,7,1,15,0.33
2013-12-8,38.3,34.1,31.7,37.0,32.0,29.0,94,92,88,30.40,30.22,6,1,8,0.08
2013-12-9,52.6,46.0,37.7,50.0,43.7,36.0,95,91,85,30.20,30.03,8,1,11,0.19
2013-12-10,41.3,34.4,24.8,40.0,30.8,18.0,95,86,71,30.36,29.93,11,2,24,0.01
2013-12-11,44.7,29.4,16.9,22.0,17.6,14.0,91,65,29,30.52,30.35,7,1,13,0.01
2013-12-12,31.2,25.8,17.9,21.0,16.4,13.0,83,68,52,30.45,30.37,10,2,17,0.00
2013-12-13,42.6,27.3,15.0,26.0,18.2,12.0,88,71,41,30.47,30.33,6,0,8,0.00
2013-12-14,39.5,36.0,32.5,37.0,30.7,24.0,94,82,59,30.34,29.83,6,1,9,0.55
2013-12-15,42.5,32.1,27.9,41.0,28.9,24.0,95,88,82,30.15,29.78,11,2,18,0.59
2013-12-16,45.8,31.7,24.8,32.0,26.4,22.0,92,82,55,30.27,30.14,6,1,9,0.00
2013-12-17,49.4,35.4,23.5,36.0,28.4,22.0,95,77,54,30.21,30.00,13,2,16,0.05
2013-12-18,37.2,28.9,21.4,21.0,18.3,14.0,86,66,43,30.38,30.14,15,3,22,0.01
2013-12-19,57.0,32.4,18.4,33.0,24.3,16.0,91,76,32,30.44,30.28,3,0,7,0.01
2013-12-20,60.7,41.3,27.8,41.0,31.1,24.0,87,69,40,30.29,30.14,5,0,8,0.00
2013-12-21,61.9,52.4,35.4,57.0,48.5,32.0,95,87,76,30.18,29.92,9,2,16,0.03
2013-12-22,61.0,55.7,52.5,58.0,53.4,51.0,94,92,84,30.05,29.91,8,1,11,0.99
2013-12-23,53.1,43.8,31.5,51.0,41.3,27.0,95,90,83,30.24,29.98,9,2,15,1.35
2013-12-24,31.2,25.8,17.5,27.0,19.4,12.0,84,77,66,30.49,30.23,13,3,21,0.00
2013-12-25,34.1,22.7,14.5,15.0,11.0,3.0,88,64,35,30.57,30.43,4,0,9,0.00
2013-12-26,39.3,25.8,15.4,26.0,19.3,13.0,90,78,58,30.48,30.38,8,1,12,0.00
2013-12-27,44.7,26.6,16.7,26.0,19.6,14.0,92,78,39,30.56,30.46,9,0,9,0.00
2013-12-28,45.8,30.3,16.3,39.0,24.7,14.0,94,81,52,30.53,30.20,3,0,6,0.17
2013-12-29,45.0,40.4,36.4,43.0,37.4,33.0,95,89,78,30.20,29.82,10,2,19,0.01
2013-12-30,39.0,35.5,31.2,35.0,32.5,29.0,92,88,83,30.20,30.00,6,2,11,0.01
2013-12-31,33.6,28.9,21.5,29.0,22.6,19.0,91,78,59,30.46,30.18,9,2,18,0.01
2014-1-1,41.2,27.6,17.6,29.0,21.6,15.0,93,80,51,30.45,30.21,5,0,9,0.01
2014-1-2,39.7,29.4,16.6,38.0,26.9,14.0,92,90,87,30.20,29.73,10,1,21,0.08